Location: La Comballaz
(46.3780°N, 7.0817°E)
Time: 18:51:02
(UTC+00:00)

USA 234 - Pass Details

Date: 09 April 2020
Orbit: 1102 x 1106 km, 123.0° (Epoch: 14 May)

Event Time Altitude Azimuth Distance (km) Brightness Sun altitude
Rises 23:17:34 0° 59° (ENE) 3,924 6.5 -35.5°
Reaches altitude 10° 23:20:11 10° 52° (NE) 2,965 5.8 -35.5°
Maximum altitude 23:26:11 40° 346° (NNW) 1,568 4.4 -35.6°
Drops below altitude 10° 23:32:10 10° 280° (W) 2,963 5.6 -35.6°
Sets 23:34:48 0° 273° (W) 3,921 6.2 -35.6°
